TimeEDT,TemperatureF,Dew PointF,Humidity,Sea Level PressureIn,VisibilityMPH,Wind Direction,Wind SpeedMPH,Gust SpeedMPH,PrecipitationIn,Events,Conditions,WindDirDegrees,DateUTC
12:51 AM,37.0,35.1,93,30.17,10.0,South,5.8,-,N/A,,Clear,180,2012-10-08 04:51:00
1:51 AM,37.0,35.1,93,30.18,10.0,SSW,6.9,-,N/A,,Clear,200,2012-10-08 05:51:00
2:51 AM,36.0,34.0,93,30.20,10.0,South,3.5,-,N/A,,Clear,190,2012-10-08 06:51:00
3:51 AM,35.6,33.8,93,30.17,9.0,SSW,4.6,-,N/A,,Clear,200,2012-10-08 07:51:00
4:51 AM,36.0,34.0,93,30.22,9.0,South,5.8,-,N/A,,Clear,180,2012-10-08 08:51:00
5:51 AM,35.1,33.1,92,30.22,8.0,SSW,4.6,-,N/A,,Partly Cloudy,200,2012-10-08 09:51:00
6:51 AM,34.0,32.0,92,30.24,8.0,South,4.6,-,N/A,,Scattered Clouds,170,2012-10-08 10:51:00
7:51 AM,34.0,32.0,92,30.25,5.0,South,3.5,-,N/A,,Mostly Cloudy,170,2012-10-08 11:51:00
8:51 AM,36.0,34.0,93,30.26,4.0,Calm,Calm,-,N/A,,Mostly Cloudy,0,2012-10-08 12:51:00
9:51 AM,39.9,37.0,89,30.26,8.0,SSW,4.6,-,N/A,,Mostly Cloudy,210,2012-10-08 13:51:00
10:51 AM,44.1,39.0,82,30.27,10.0,South,4.6,-,N/A,,Overcast,190,2012-10-08 14:51:00
11:51 AM,45.0,37.9,76,30.27,10.0,SSW,5.8,-,N/A,,Overcast,200,2012-10-08 15:51:00
12:51 PM,46.0,33.1,61,30.26,10.0,WSW,4.6,-,N/A,,Overcast,240,2012-10-08 16:51:00
1:51 PM,46.9,34.0,61,30.25,10.0,SSW,8.1,-,N/A,,Overcast,210,2012-10-08 17:51:00
2:51 PM,46.9,32.0,56,30.23,10.0,South,8.1,-,N/A,,Overcast,190,2012-10-08 18:51:00
3:51 PM,48.0,32.0,54,30.23,10.0,Variable,5.8,-,N/A,,Overcast,0,2012-10-08 19:51:00
4:51 PM,48.9,33.1,54,30.22,10.0,SSW,6.9,-,N/A,,Overcast,200,2012-10-08 20:51:00
5:51 PM,48.0,32.0,54,30.22,10.0,South,6.9,-,N/A,,Mostly Cloudy,190,2012-10-08 21:51:00
6:51 PM,43.0,34.0,71,30.22,10.0,South,3.5,-,N/A,,Mostly Cloudy,170,2012-10-08 22:51:00
7:51 PM,41.0,33.8,76,30.18,10.0,SE,5.8,-,N/A,,Mostly Cloudy,140,2012-10-08 23:51:00
8:51 PM,39.0,33.1,79,30.22,10.0,SSE,5.8,-,N/A,,Scattered Clouds,150,2012-10-09 00:51:00
9:51 PM,36.0,33.1,89,30.22,10.0,SE,6.9,-,N/A,,Clear,140,2012-10-09 01:51:00
10:51 PM,36.0,33.1,89,30.22,10.0,SE,5.8,-,N/A,,Clear,140,2012-10-09 02:51:00
11:51 PM,34.0,32.0,92,30.22,10.0,SSE,4.6,-,N/A,,Clear,150,2012-10-09 03:51:00